Location: Unspecified
(45.6521°N, 0.0000°E)
Time: 05:16:57
(UTC+00:00)

COSMOS 2489 - Visible Passes

Search period start: 04 April 2026 00:00
Search period end: 14 April 2026 00:00
Orbit: 1478 x 1510 km, 82.5° (Epoch: 29 March)

Date Brightness Start Highest point End Pass type
(mag) Time Alt. Az. Time Alt. Az. Time Alt. Az.
4 Apr ? 01:04:41 41° ESE 01:06:01 44° E 01:14:12 10° NNE visible
4 Apr ? 03:00:36 40° WSW 03:02:47 47° WNW 03:11:17 10° N visible
4 Apr ? 05:01:00 10° NW 05:02:28 10° NW 05:03:56 10° NW visible
5 Apr ? 00:15:48 24° E 00:17:20 25° E 00:24:02 10° NNE visible
5 Apr ? 02:11:44 65° SW 02:13:10 78° W 02:22:06 10° N visible
5 Apr ? 04:07:39 14° W 04:11:40 19° WNW 04:17:37 10° NNW visible
5 Apr ? 23:26:54 12° E 23:29:00 13° ENE 23:32:28 10° NE visible
6 Apr ? 01:22:50 60° SE 01:23:55 65° E 01:32:39 10° NNE visible
6 Apr ? 03:18:45 28° W 03:21:22 32° WNW 03:29:08 10° N visible
7 Apr ? 00:33:55 36° E 00:34:59 38° E 00:42:51 10° NNE visible
7 Apr ? 02:29:50 49° WSW 02:31:29 54° WNW 02:40:10 10° N visible
7 Apr ? 04:27:23 10° WNW 04:30:49 12° NW 04:34:17 10° NNW visible
7 Apr ? 23:44:59 20° E 23:46:23 21° ENE 23:52:27 10° NNE visible
8 Apr ? 01:40:55 73° SSW 01:41:59 89° W 01:50:54 10° N visible
8 Apr ? 03:36:50 18° W 03:40:10 22° WNW 03:46:45 10° N visible
8 Apr ? 22:57:05 10° ENE 22:58:09 10° ENE 22:59:14 10° ENE visible
9 Apr ? 00:51:59 54° ESE 00:52:49 56° E 01:01:23 10° NNE visible
9 Apr ? 02:47:54 33° W 02:50:00 37° WNW 02:58:06 10° N visible
10 Apr ? 00:03:01 32° E 00:03:58 32° E 00:11:27 10° NNE visible
10 Apr ? 01:58:57 57° WSW 02:00:13 63° WNW 02:09:02 10° N visible
10 Apr ? 03:54:52 10° W 03:59:13 15° NW 04:03:51 10° NNW visible
10 Apr ? 23:14:04 17° E 23:15:28 18° ENE 23:20:46 10° NE visible
11 Apr ? 01:09:59 74° SSE 01:10:49 81° E 01:19:42 10° N visible
11 Apr ? 03:05:54 22° W 03:08:42 26° WNW 03:15:49 10° N visible
12 Apr ? 00:21:01 47° ESE 00:21:43 48° E 00:30:04 10° NNE visible
12 Apr ? 02:16:56 40° W 02:18:39 43° WNW 02:27:01 10° N visible
12 Apr ? 23:32:01 27° E 23:32:59 28° E 23:40:00 10° NNE visible
13 Apr ? 01:27:56 66° WSW 01:28:59 72° WNW 01:37:52 10° N visible
13 Apr ? 03:23:51 13° W 03:27:39 17° NW 03:33:09 10° NNW visible
13 Apr ? 22:43:01 14° E 22:44:35 15° ENE 22:48:51 10° NE visible
